When you browse on this site, cookies collect data to enhance your experience and personalize the content and advertising you see.
Visit our Privacy Policy to learn more. By continuing to use the site, you agree to this use of cookies and data.
  • Em Portugal
  • Lista de países
  • Para 7 dias
  • Temperatura da água
  • Mapas de satélite
  • Mapa do tempo
  • Widgets de tempo
  • user-avatar
    Iniciar Sessão

    Previsão horária em Maan

    Hoje, 26 Março, Terça-feira

    Tempo Temperatura Precipitação Vento Pressão Humidade
    00:00 +2°C° 0 mm 3 m/s 630 mmHg 64%
    01:00 +2°C° 0 mm 3 m/s 630 mmHg 64%
    02:00 +1°C° 0 mm 4 m/s 630 mmHg 67%
    03:00 +1°C° 0 mm 3 m/s 630 mmHg 68%
    04:00 +1°C° 0 mm 3 m/s 630 mmHg 69%
    05:00 +1°C° 0 mm 3 m/s 631 mmHg 70%
    06:00 +2°C° 0 mm 3 m/s 631 mmHg 65%
    07:00 +3°C° 0 mm 4 m/s 632 mmHg 60%
    08:00 +4°C° 0 mm 4 m/s 632 mmHg 55%
    09:00 +5°C° 0 mm 4 m/s 633 mmHg 49%
    10:00 +6°C° 0 mm 4 m/s 633 mmHg 44%
    11:00 +7°C° 0 mm 5 m/s 633 mmHg 39%
    12:00 +8°C° 0 mm 5 m/s 634 mmHg 36%
    13:00 +9°C° 0 mm 5 m/s 634 mmHg 33%
    14:00 +10°C° 0 mm 6 m/s 634 mmHg 30%
    15:00 +10°C° 0 mm 6 m/s 634 mmHg 31%
    16:00 +9°C° 0 mm 7 m/s 634 mmHg 31%
    17:00 +9°C° 0 mm 7 m/s 634 mmHg 31%
    18:00 +8°C° 0 mm 6 m/s 634 mmHg 35%
    19:00 +8°C° 0 mm 5 m/s 635 mmHg 39%
    20:00 +7°C° 0 mm 5 m/s 635 mmHg 42%
    21:00 +7°C° 0 mm 4 m/s 635 mmHg 45%
    22:00 +7°C° 0 mm 3 m/s 635 mmHg 48%
    23:00 +6°C° 0 mm 2 m/s 635 mmHg 51%

    Amanhã, 27 Março, Quarta-feira

    Tempo Temperatura Precipitação Vento Pressão Humidade
    00:00 +6°C° 0 mm 2 m/s 635 mmHg 52%
    01:00 +6°C° 0 mm 2 m/s 635 mmHg 54%
    02:00 +6°C° 0 mm 2 m/s 635 mmHg 55%
    03:00 +4°C° 0 mm 3 m/s 635 mmHg 55%
    04:00 +4°C° 0 mm 3 m/s 635 mmHg 55%
    05:00 +4°C° 0 mm 4 m/s 635 mmHg 55%
    06:00 +5°C° 0 mm 5 m/s 635 mmHg 55%
    07:00 +5°C° 0 mm 6 m/s 636 mmHg 55%
    08:00 +5°C° 0 mm 7 m/s 637 mmHg 55%
    09:00 +6°C° 0 mm 8 m/s 637 mmHg 47%
    10:00 +9°C° 0 mm 8 m/s 638 mmHg 39%
    11:00 +10°C° 0 mm 8 m/s 638 mmHg 32%
    12:00 +10°C° 0 mm 8 m/s 638 mmHg 29%
    13:00 +11°C° 0 mm 8 m/s 638 mmHg 26%
    14:00 +11°C° 0 mm 8 m/s 638 mmHg 24%
    15:00 +11°C° 0 mm 8 m/s 638 mmHg 26%
    16:00 +10°C° 0 mm 8 m/s 638 mmHg 28%
    17:00 +10°C° 0 mm 7 m/s 638 mmHg 30%
    18:00 +9°C° 0 mm 6 m/s 638 mmHg 35%
    19:00 +8°C° 0 mm 5 m/s 638 mmHg 40%
    20:00 +7°C° 0 mm 4 m/s 638 mmHg 45%
    21:00 +8°C° 0 mm 3 m/s 638 mmHg 45%
    22:00 +7°C° 0 mm 2 m/s 638 mmHg 45%
    23:00 +7°C° 0 mm 2 m/s 637 mmHg 45%

    Depois de amanhã, 28 Março, Quinta-feira

    Tempo Temperatura Precipitação Vento Pressão Humidade
    00:00 +6°C° 0 mm 2 m/s 637 mmHg 46%
    01:00 +6°C° 0 mm 2 m/s 637 mmHg 47%
    02:00 +6°C° 0 mm 2 m/s 637 mmHg 48%
    03:00 +5°C° 0 mm 2 m/s 637 mmHg 50%
    04:00 +5°C° 0 mm 2 m/s 637 mmHg 52%
    05:00 +6°C° 0 mm 1 m/s 636 mmHg 53%
    06:00 +7°C° 0 mm 1 m/s 637 mmHg 49%
    07:00 +8°C° 0 mm 1 m/s 638 mmHg 45%
    08:00 +9°C° 0 mm 1 m/s 638 mmHg 41%
    09:00 +11°C° 0 mm 1 m/s 638 mmHg 35%
    10:00 +12°C° 0 mm 2 m/s 639 mmHg 29%
    11:00 +13°C° 0 mm 2 m/s 639 mmHg 23%
    12:00 +13°C° 0 mm 3 m/s 639 mmHg 21%
    13:00 +14°C° 0 mm 3 m/s 639 mmHg 18%
    14:00 +15°C° 0 mm 4 m/s 638 mmHg 15%
    15:00 +15°C° 0 mm 4 m/s 638 mmHg 15%
    16:00 +15°C° 0 mm 4 m/s 637 mmHg 15%
    17:00 +14°C° 0 mm 4 m/s 637 mmHg 15%
    18:00 +13°C° 0 mm 3 m/s 637 mmHg 16%
    19:00 +14°C° 0 mm 2 m/s 637 mmHg 18%
    20:00 +13°C° 0 mm 1 m/s 637 mmHg 20%
    21:00 +12°C° 0 mm 1 m/s 637 mmHg 21%
    22:00 +12°C° 0 mm 1 m/s 636 mmHg 21%
    23:00 +11°C° 0 mm 1 m/s 636 mmHg 21%

    29 Março, Sexta-feira

    Tempo Temperatura Precipitação Vento Pressão Humidade
    00:00 +11°C° 0 mm 1 m/s 636 mmHg 22%
    01:00 +10°C° 0 mm 1 m/s 635 mmHg 23%
    02:00 +10°C° 0 mm 1 m/s 635 mmHg 24%
    03:00 +10°C° 0 mm 1 m/s 634 mmHg 24%
    04:00 +9°C° 0 mm 1 m/s 634 mmHg 24%
    05:00 +9°C° 0 mm 1 m/s 634 mmHg 25%
    06:00 +11°C° 0 mm 1 m/s 634 mmHg 22%
    07:00 +13°C° 0 mm 2 m/s 635 mmHg 20%
    08:00 +14°C° 0 mm 2 m/s 636 mmHg 17%
    09:00 +15°C° 0 mm 4 m/s 636 mmHg 16%
    10:00 +17°C° 0 mm 5 m/s 636 mmHg 16%
    11:00 +18°C° 0 mm 7 m/s 637 mmHg 16%
    12:00 +19°C° 0 mm 6 m/s 636 mmHg 18%
    13:00 +17°C° 0 mm 5 m/s 635 mmHg 20%
    14:00 +17°C° 0 mm 4 m/s 634 mmHg 23%
    15:00 +17°C° 0 mm 3 m/s 633 mmHg 22%
    16:00 +17°C° 0 mm 3 m/s 633 mmHg 22%
    17:00 +18°C° 0 mm 2 m/s 633 mmHg 22%
    18:00 +17°C° 0 mm 3 m/s 633 mmHg 22%
    19:00 +16°C° 0 mm 3 m/s 633 mmHg 22%
    20:00 +15°C° 0 mm 4 m/s 632 mmHg 22%
    21:00 +15°C° 0 mm 4 m/s 632 mmHg 23%
    22:00 +14°C° 0 mm 5 m/s 632 mmHg 24%
    23:00 +14°C° 0 mm 6 m/s 632 mmHg 25%

    30 Março, Sábado

    Tempo Temperatura Precipitação Vento Pressão Humidade
    00:00 +13°C° 0 mm 5 m/s 631 mmHg 38%
    01:00 +10°C° 0 mm 5 m/s 630 mmHg 51%
    02:00 +8°C° 0 mm 5 m/s 629 mmHg 64%
    03:00 +8°C° 0.2 mm 5 m/s 629 mmHg 70%
    04:00 +8°C° 0.2 mm 5 m/s 629 mmHg 76%
    05:00 +7°C° 0.2 mm 5 m/s 630 mmHg 82%
    06:00 +7°C° 0.1 mm 5 m/s 630 mmHg 80%
    07:00 +7°C° 0.1 mm 5 m/s 630 mmHg 77%
    08:00 +7°C° 0.1 mm 5 m/s 630 mmHg 74%
    09:00 +8°C° 0 mm 6 m/s 630 mmHg 67%
    10:00 +9°C° 0 mm 6 m/s 630 mmHg 60%
    11:00 +10°C° 0 mm 6 m/s 630 mmHg 53%
    12:00 +11°C° 0 mm 7 m/s 630 mmHg 46%
    13:00 +12°C° 0 mm 8 m/s 630 mmHg 39%
    14:00 +13°C° 0 mm 9 m/s 630 mmHg 33%
    15:00 +12°C° 0 mm 9 m/s 630 mmHg 34%
    16:00 +11°C° 0 mm 10 m/s 630 mmHg 36%
    17:00 +9°C° 0 mm 10 m/s 630 mmHg 38%
    18:00 +8°C° 0 mm 9 m/s 630 mmHg 40%
    19:00 +7°C° 0 mm 9 m/s 630 mmHg 42%
    20:00 +6°C° 0 mm 8 m/s 630 mmHg 43%
    21:00 +6°C° 0 mm 7 m/s 630 mmHg 49%
    22:00 +5°C° 0 mm 6 m/s 630 mmHg 55%
    23:00 +4°C° 0 mm 6 m/s 629 mmHg 61%

    31 Março, Domingo

    Tempo Temperatura Precipitação Vento Pressão Humidade
    00:00 +5°C° 0 mm 5 m/s 629 mmHg 64%
    01:00 +4°C° 0 mm 4 m/s 629 mmHg 67%
    02:00 +4°C° 0 mm 3 m/s 629 mmHg 70%
    03:00 +4°C° 0 mm 3 m/s 629 mmHg 72%
    04:00 +3°C° 0 mm 3 m/s 629 mmHg 74%
    05:00 +4°C° 0 mm 2 m/s 629 mmHg 77%
    06:00 +3°C° 0 mm 4 m/s 629 mmHg 69%
    07:00 +3°C° 0 mm 5 m/s 629 mmHg 61%
    08:00 +3°C° 0 mm 6 m/s 630 mmHg 53%
    09:00 +4°C° 0 mm 7 m/s 630 mmHg 49%
    10:00 +5°C° 0 mm 7 m/s 630 mmHg 46%
    11:00 +6°C° 0 mm 8 m/s 630 mmHg 42%
    12:00 +6°C° 0.1 mm 8 m/s 630 mmHg 44%
    13:00 +6°C° 0.1 mm 9 m/s 629 mmHg 46%
    14:00 +5°C° 0.1 mm 9 m/s 629 mmHg 49%
    15:00 +5°C° 0.1 mm 10 m/s 629 mmHg 47%
    16:00 +5°C° 0.1 mm 10 m/s 629 mmHg 45%
    17:00 +3°C° 0.1 mm 11 m/s 629 mmHg 43%
    18:00 +3°C° 0 mm 11 m/s 630 mmHg 46%
    19:00 +2°C° 0 mm 11 m/s 630 mmHg 48%
    20:00 +2°C° 0 mm 11 m/s 630 mmHg 50%
    21:00 +1°C° 0 mm 10 m/s 630 mmHg 55%
    22:00 +1°C° 0 mm 9 m/s 630 mmHg 59%
    23:00 +1°C° 0 mm 9 m/s 630 mmHg 64%
    Mostrar mais